User: anonymous   Login
Location: Unspecified
(0.0000°N, 0.0000°E)
Time: 08:49:34
(UTC+00:00)
Language:

MERIDIAN 3 - Orbit

View from above orbital plane
View from above orbital plane
View from above satellite
View from above satellite

Ground track
Ground track

The orbit data is extracted from the following two-line orbital elements,

1 37212U 10058A   17177.75793402 +.00000020 +00000-0 +10000-3 0  9995
2 37212 063.1999 073.3709 6946680 274.1862 016.3276 02.00612283048700
Epoch (UTC): 26 June 2017 18:11:25
Eccentricity: 0.6946680
inclination: 63.1999°
perigee height: 1730 km
apogee height: 38625 km
right ascension of ascending node: 73.3709°
argument of perigee: 274.1862°
revolutions per day: 2.00612283
mean anomaly at epoch: 16.3276°
orbit number at epoch: 4870

The dashed part of the orbit path shows where the satellite is in the earth's shadow,  

DLR